www.pogodaiklimat.ru

Погода и климат >> Архив погоды >> Россия >> Камчатский край >> Мыс Лопатка


ПОГОДА на Мысе Лопатка

  • Прогноз погоды на Мысе Лопатка
  • Монитор погоды на Мысе Лопатка
  • Климат города

АРХИВ ПОГОДЫ на Мысе Лопатка

Время (UTC), дата Ветер
(напр.,м/с)
 
Видим.   Явления Облачность Т
(С)
Тd
(С)
f
(%)
Тe
(С)
Тes
(С)
Комфортность P
(гПа)
Po
(гПа)
Тmin
(С)
Tmax
(С)
R
(мм)
S
(см)
09 16.03 В 7
{11}
20 км 10/10 600 м
[Sc]
-0.6 -1.4 94 -8 -8 1002.8 996.5 0.0 0.3
12 16.03 В 6 20 км 10/10 600 м
[Sc]
-0.4 -1.0 96 -7 -7 1003.0 996.7
15 16.03 В 10-12
{12}
20 км 10/10 600 м
[Sc]
-0.5 -1.2 95 -9 -9 1001.7 995.4
18 16.03 СВ 8-11
{15}
20 км 10/10 600 м
[Sc]
-0.3 -2.3 86 -8 -8 999.8 993.6
21 16.03 С 9-12
{14}
20 км 10/10 600 м
[Sc]
+0.3 -3.0 78 -7 -7 998.1 991.9 -0.9 51
00 17.03 С 10-11
{12}
2000 м ливневой снег {метель} 10/10 200 м
[Cb cap]
-0.6 -0.9 98 -9 -9 994.9 988.7
03 17.03 С 8-11
{15}
2000 м ливневой снег {метель} 10/10 200 м
[Cb cap]
-0.3 -0.5 99 -8 -8 991.8 985.6
06 17.03 СВ 20-25
{26}
4000 м слабый ливневой дождь со снегом {метель} 10/10 200 м
[Cb cap]
+1.1 +0.3 94 -9 -9 990.2 984.0
09 17.03 СВ 15-21
{28}
10 км слабый ливневой дождь 10/10 300 м
[Cb cap]
+1.0 +0.1 94 -8 -8 990.2 984.0 +1.7 4
12 17.03 СВ 16-21
{23}
4000 м слабый ливневой дождь со снегом 10/10 300 м
[Cb cap]
+0.6 -0.1 95 -9 -9 989.0 982.8
15 17.03 СВ 15-20
{20}
4000 м слабый ливневой дождь 10/10 300 м
[Cb cap]
+1.2 -0.3 90 -8 -8 988.1 981.9
18 17.03 СВ 21-26
{29}
20 км {ливн. осадки} 9/9 600 м
[Sc]
+1.8 -1.1 81 -8 -8 987.8 981.6
21 17.03 СВ 23-30
{30}
20 км 9/8 600 м
[Sc Ac trans]
+1.6 -1.3 81 -9 -9 988.2 982.0 +0.5 5 49
00 18.03 СВ 17-22
{30}
10 км слабый ливневой дождь со снегом 10/10 300 м
[Cb cap]
+2.0 -1.4 78 -7 -7 990.0 983.9
03 18.03 С 6
{22}
10 км слабый ливневой дождь со снегом 10/10 300 м
[Cb cap]
+1.3 -0.4 88 -5 -5 991.0 984.8
06 18.03 С 8
{12}
2000 м ливневой снег 10/10 200 м
[Cb cap]
0.0 -0.3 98 -8 -8 991.1 984.9
09 18.03 С 8-10
{10}
4000 м слабый ливневой снег 10/10 300 м
[Cb cap]
+0.1 -0.1 99 -8 -8 992.0 985.8 +2.1 5
12 18.03 С 9-12
{14}
20 км {ливн. осадки} 10/10 300 м
[St]
+0.3 -0.1 97 -8 -8 991.6 985.4
15 18.03 С 9-11
{12}
20 км 10/10 600 м
[Sc]
+0.2 -0.4 96 -8 -8 991.4 985.2
18 18.03 С 7
{13}
2000 м ливневой снег 10/10 300 м
[Cb cap]
-0.1 -0.2 99 -7 -7 991.2 985.0
21 18.03 СЗ 8-10
{12}
10 км слабый ливневой снег 10/10 300 м
[Cb cap]
+0.3 -0.1 97 -7 -7 991.6 985.4 -0.2 0.8 51
00 19.03 С 8-10
{10}
20 км {ливн. осадки} 9/9 600 м
[Sc]
+0.6 -0.2 94 -7 -7 991.7 985.5
03 19.03 С 2
{10}
10 км слабый ливневой снег 10/10 300 м
[Cb cap]
+0.5 -0.1 96 -3 -3 991.7 985.5
06 19.03 В 10-13
{13}
4000 м слабый ливневой снег 10/10 200 м
[Cb cap]
+0.3 -0.1 97 -8 -8 992.2 986.0
09 19.03 СВ 5
{14}
20 км {ливн. осадки} 9/9 600 м
[Sc]
+1.1 -0.7 88 -5 -5 993.4 987.2 +1.2 0.5
12 19.03 СВ 6
{12}
20 км {ливн. осадки} 9/3 600 м
[Sc Ci sp]
+0.7 -0.5 92 -6 -6 993.7 987.5
15 19.03 С 4 20 км 9/6 600 м
[Sc Ci sp]
+0.1 -0.3 97 -6 -6 993.8 987.6
18 19.03 С 3 20 км 3/3 600 м
[Sc Ci sp]
+0.1 -1.0 92 -5 -5 993.6 987.4
21 19.03 З 5 50 км 8/1 1000 м
[Sc Ac trans Ci sp]
-0.1 -0.8 95 -6 -6 993.9 987.7 -0.3 49
00 20.03 С 7 50 км 9/8 600 м
[Sc Ac trans Ci sp]
+0.6 -1.5 86 -6 -6 993.5 987.3
03 20.03 З 5 50 км 9/9 600 м
[Sc]
+0.4 -1.0 90 -6 -5 993.2 987.0
06 20.03 СЗ 7 50 км 9/9 600 м
[Sc]
+1.0 -1.5 83 -6 -6 993.0 986.8
09 20.03 С 8-10
{11}
20 км 10/10 600 м
[Sc]
+0.8 -1.1 87 -6 -6 994.0 987.8 +1.3
12 20.03 С 4
{10}
20 км 10/10 600 м
[Sc]
+1.3 -1.2 83 -4 -4 994.6 988.4
15 20.03 С 7 20 км 10/10 600 м
[Sc]
+0.5 -0.8 91 -7 -7 995.4 989.2
18 20.03 СЗ 5 20 км 10/10 600 м
[Sc]
+0.2 -0.6 94 -6 -6 996.3 990.1
21 20.03 З 7 10 км слабый ливневой снег 9/5 600 м
[Cb cap Ac As Ci ing]
0.0 -0.4 97 -7 -7 997.7 991.5 0.0 0.0 49
00 21.03 З 4 20 км {ливн. осадки} 9/8 600 м
[Sc Ac trans Ci sp]
+0.5 -0.3 94 -5 -4 999.2 993.0
03 21.03 З 8
{10}
10 км {ливн. осадки} 10/10 200 м
[St]
-0.1 -0.4 98 -8 -8 999.7 993.5
06 21.03 З 10-11
{11}
10 км {ливн. осадки} 10/10 300 м
[St]
-0.4 -0.9 96 -9 -9 1000.7 994.5
09 21.03 СЗ 10-11
{13}
20 км 10/10 300 м
[St]
-0.5 -0.8 98 -9 -9 1002.8 996.5 +0.7 0.0
12 21.03 СЗ 10-12
{12}
4000 м слабый снег 10/10 200 м
[St]
-0.7 -0.8 99 -9 -9 1003.5 997.2
15 21.03 СЗ 11-13
{14}
10 км {снег} 10/10 300 м
[St]
-0.8 -1.1 98 -10 -10 1003.8 997.5
18 21.03 З 12-15
{15}
2000 м слабый ливневой снег {метель} 10/10 300 м
[Cb cap]
-0.7 -0.9 99 -10 -10 1003.9 997.6
21 21.03 СЗ 11-13
{17}
20 км {ливн. осадки, метель} 9/9 600 м
[Sc]
-0.9 -1.3 97 -10 -10 1004.8 998.5 -1.0 0.3 48
00 22.03 СЗ 13-15
{16}
20 км {ливн. осадки, метель} 9/8 600 м
[Cb calv Ci sp]
-0.7 -1.6 94 -10 -10 1004.9 998.6
03 22.03 СЗ 10-12
{16}
20 км 9/9 600 м
[Sc]
-0.1 -2.6 83 -8 -8 1005.7 999.4
06 22.03 СЗ 9-10
{12}
20 км 9/8 600 м
[Sc Ac trans]
-0.5 -2.0 90 -9 -9 1005.9 999.6
09 22.03 СЗ 9-10
{12}
20 км 9/3 600 м
[Sc Ac trans]
-0.9 -2.6 88 -9 -9 1006.8 1000.5 -0.1
12 22.03 З 9-11
{11}
20 км 10/10 600 м
[Sc]
-1.2 -4.1 81 -9 -9 1007.2 1000.9
15 22.03 З 8-10
{11}
20 км 10/10 600 м
[Sc]
-1.2 -3.9 82 -9 -9 1006.7 1000.4
18 22.03 З 7
{11}
20 км 10/10 600 м
[Sc]
-1.3 -3.7 84 -9 -9 1006.3 1000.0
21 22.03 З 5 20 км 10/10 600 м
[Sc]
-1.1 -3.4 84 -7 -7 1006.5 1000.2 -1.5 48
00 23.03 З 5 20 км 10/10 600 м
[Sc]
-0.8 -3.4 83 -7 -7 1006.9 1000.6
03 23.03 З 5 20 км 10/10 600 м
[Sc]
-0.7 -3.8 80 -7 -7 1006.3 1000.0
06 23.03 СЗ 6 20 км 10/10 600 м
[Sc]
-0.8 -3.0 85 -8 -8 1006.1 999.8

 

Местоположение метеостанции Мыс Лопатка (Камчатский край, Россия): широта 50.87 долгота 156.60 высота над уровнем моря 50 м.

В архиве по умолчанию представлена погода на Мысе Лопатка за последнюю неделю. Архивные данные за месяц целиком и за предыдущие месяцы, начиная с января 2011 года, Вы можете получить, выбрав интересующий диапазон дат из раскрывающегося списка и нажав кнопку "Ввод!".

Внимание! Время в таблицах - всемирное. Для получения местного времени необходимо прибавить поправку, которая на Мысе Лопатка равна 12 ч.

Смотрите также архив погоды в соседних городах и на ближайших метеорологических станциях:

Погода в Северо-Курильске (Сахалинская область, Россия) (41 км)
Погода в Озерной (Камчатский край, Россия) (69 км)
Погода в Водопадной (Камчатский край, Россия) (144 км)
Погода в Большерецке (Камчатский край, Россия) (219 км)
Погода в Начиках (Камчатский край, Россия) (261 км)
Погода в Петропавловск-Камчатском (Камчатский край, Россия) (261 км)
Погода в Петропавловском Маяке (Камчатский край, Россия) (266 км)
Погода в Сосновке (Камчатский край, Россия) (272 км)
Погода в Петропавловск-Камч. 2 (Камчатский край, Россия) (278 км)
Погода в Пущино (Камчатский край, Россия) (380 км)

Пояснения к столбцам:

Ветер - указаны скорость ветра в м/с - средняя за 10 мин, порывы в срок и между сроками (в фигурных скобках) и направление, откуда дует ветер: С - северный, СВ - северо-восточный, В - восточный, ЮВ - юго-восточный, Ю - южный, ЮЗ - юго-западный, З - западный, СЗ - северо-западный.
Видимость - горизонтальная дальность видимости в метрах или километрах. При видимости от 1 до 10 км при отсутствии осадков обычно наблюдается дымка, при ухудшении видимости до 1 км и менее - туман. В сухую погоду видимость может ухудшаться дымом, пылью или мглою.
Явления - указаны атмосферные явления, наблюдавшиеся в срок или в последний час перед сроком; фигурными скобками обозначены явления, наблюдавшиеся между сроками (за 1-3 часа до срока); квадратными скобками обозначены град или гололедные отложения с указанием их диаметра в мм.
Облачность - указаны через наклонную черту общая и нижняя облачность в баллах и высота нижней границы облаков в метрах; квадратными скобками обозначены формы облаков: Ci - перистые, Cs - перисто-слоистые, Cc - перисто-кучевые, Ac - высококучевые, As - высокослоистые, Sc - слоисто-кучевые, Ns - слоисто-дождевые, Cu - кучевые, Cb - кучево-дождевые. Подробнее классификацию облаков см. в Атласе облаков (PDF).
T - Температура воздуха - температура, измеренная на высоте 2 м над землей.
Td - Температура точки росы - температура, при понижении до которой содержащийся в воздухе водяной пар достигнет насыщения.
f - Относительная влажность воздуха - влажноcть воздуха, измеренная на высоте 2 м над землей.
Te - Эффективная температура - температура, которую ощущает одетый по сезону человек в тени. Характеристика душности погоды. При расчете учитывается влияние влажности воздуха и скорости ветра на теплоощущения человека.
Tes - Эффективная температура на солнце - температура, которую ощущает человек, с поправкой на солнечный нагрев. Характеристика знойности погоды. Зависит от высоты солнца над горизонтом, облачности и скорости ветра. Ночью, в пасмурную погоду, а также при ветре 12 м/с и более поправка равна нулю.
P - Атмосферное давление - приведенное к уровню моря атмосферное давление.
Po - Атмосферное давление - измеренное на уровне метеостанции атмосферное давление.
Tmin - Минимальная температура - минимум температуры воздуха на высоте 2 м над землей.
Tmax - Максимальная температура - максимум температуры воздуха на высоте 2 м над землей.
R - Количество осадков - Количество выпавших осадков, мм. При наведении курсора мыши на число - период времени, за который выпало указанное количество осадков.
S - Снежный покров - Высота снежного покрова, см. При наведении курсора мыши на число - состояние снежного покрова и степень покрытия местности в баллах.